Columbus, GA

10:12 PM EDT on March 24, 2017 (GMT -0400)
Columbus Metro

Weather History for KCSG - January, 2014

Change the Weather History Date:

Thursday, January 9, 2014

  Actual Average Record
Temperature  
Mean Temperature 40 °F 47 °F  
Max Temperature 51 °F 57 °F 78 °F (1957)
Min Temperature 28 °F 37 °F 7 °F (1970)
Degree Days  
Heating Degree Days 25 18  
Month to date heating degree days 253 162  
Since 1 July heating degree days 1029 991  
Cooling Degree Days 0 0  
Month to date cooling degree days 0 0  
Year to date cooling degree days 0 0  
Moisture  
Dew Point 27 °F    
Average Humidity 52    
Maximum Humidity 71    
Minimum Humidity 32    
Precipitation  
Precipitation T in 0.12 in 1.49 in (1936)
Month to date precipitation 0.69 1.07  
Year to date precipitation 0.69 1.07  
Snow  
Snow 0.00 in 0.00 in 0.00 in (2002)
Month to date snowfall 0.0 0.1  
Since 1 July snowfall 0.0 0.2  
Snow Depth 0.00 in    
Sea Level Pressure  
Sea Level Pressure 30.40 in    
Wind  
Wind Speed 7 mph (East)    
Max Wind Speed 14 mph    
Max Gust Speed 17 mph    
Visibility 10 miles    
Events Rain    
T = Trace of Precipitation, MM = Missing Value Source: NWS Daily Summary

Daily Weather History Graph

Daily Weather History Graph

Search for Another Location

Airport or City:

Trip Planner

Search our weather history database for the weather conditions in past years. The results will help you decide how hot, cold, wet, or windy it might be!

Date:

Astronomy

Jan. 09, 2014 Rise Set
Actual Time 7:42 AM EST 5:51 PM EST
Civil Twilight 7:15 AM EST 6:18 PM EST
Nautical Twilight 6:45 AM EST 6:48 PM EST
Astronomical Twilight 6:15 AM EST 7:18 PM EST
Moon 1:11 PM EST (1/9) 1:57 AM EST (1/9)
Length of Visible Light 11h 03m
Length of Day
10h 09m
Waxing Gibbous, 66% of the Moon is Illuminated
Jan 9
Waxing Gibbous
Jan 15
Full
Jan 24
Last Quarter
Jan 30
New
Feb 6
First Quarter

Hourly Weather History & Observations

Time (EST) Temp. Windchill Dew Point Humidity Pressure Visibility Wind Dir Wind Speed Gust Speed Precip Events Conditions
12:51 AM 32.0 °F 28.7 °F 15.1 °F 50% 30.44 in 10.0 mi East 3.5 mph - N/A   Mostly Cloudy
1:51 AM 33.1 °F - 12.0 °F 42% 30.43 in 10.0 mi Calm Calm - N/A   Clear
2:51 AM 35.1 °F 32.2 °F 9.0 °F 34% 30.43 in 10.0 mi NNE 3.5 mph - N/A   Mostly Cloudy
3:51 AM 34.0 °F - 14.0 °F 44% 30.43 in 10.0 mi Calm Calm - N/A   Mostly Cloudy
4:51 AM 36.0 °F 32.1 °F 12.0 °F 37% 30.43 in 10.0 mi East 4.6 mph - N/A   Overcast
5:40 AM 37.4 °F 32.1 °F 12.2 °F 36% 30.41 in 10.0 mi East 6.9 mph - N/A   Overcast
5:51 AM 37.0 °F 30.4 °F 12.0 °F 36% 30.41 in 10.0 mi East 9.2 mph - N/A   Overcast
6:02 AM 37.4 °F 31.4 °F 12.2 °F 36% 30.41 in 10.0 mi East 8.1 mph - N/A   Overcast
6:51 AM 36.0 °F 29.6 °F 12.0 °F 37% 30.43 in 10.0 mi East 8.1 mph - N/A   Partly Cloudy
7:51 AM 37.9 °F 31.5 °F 15.1 °F 39% 30.43 in 10.0 mi East 9.2 mph - N/A   Overcast
8:51 AM 39.0 °F 34.8 °F 18.0 °F 43% 30.46 in 10.0 mi Variable 5.8 mph - N/A   Mostly Cloudy
9:51 AM 42.1 °F 36.1 °F 21.0 °F 43% 30.46 in 10.0 mi East 10.4 mph - N/A   Overcast
10:51 AM 44.1 °F 39.5 °F 27.0 °F 51% 30.47 in 10.0 mi East 8.1 mph - N/A   Overcast
11:51 AM 46.9 °F - 30.0 °F 52% 30.43 in 10.0 mi East 8.1 mph - N/A   Overcast
12:16 PM 48.2 °F - 30.2 °F 50% 30.41 in 10.0 mi East 8.1 mph - N/A   Overcast
12:51 PM 48.9 °F - 34.0 °F 56% 30.38 in 10.0 mi East 12.7 mph 17.3 mph N/A   Overcast
1:51 PM 48.9 °F - 37.9 °F 66% 30.35 in 10.0 mi ESE 11.5 mph - N/A   Overcast
2:51 PM 48.9 °F - 39.0 °F 69% 30.35 in 8.0 mi East 8.1 mph - N/A   Overcast
3:51 PM 50.0 °F - 37.9 °F 63% 30.35 in 10.0 mi ENE 6.9 mph - N/A   Overcast
4:51 PM 50.0 °F - 39.0 °F 66% 30.34 in 10.0 mi East 10.4 mph - N/A   Overcast
6:51 PM 50.0 °F - 39.9 °F 68% 30.36 in 10.0 mi ENE 4.6 mph - 0.00 in   Overcast
7:51 PM 50.0 °F - 39.0 °F 66% 30.35 in 10.0 mi ENE 9.2 mph - N/A   Overcast
8:51 PM 50.0 °F - 37.9 °F 63% 30.36 in 10.0 mi East 8.1 mph - N/A   Overcast
9:49 PM 48.2 °F - 37.4 °F 66% 30.36 in 10.0 mi ESE 9.2 mph - 0.00 in Rain Light Rain
9:51 PM 48.9 °F - 37.9 °F 66% 30.36 in 10.0 mi ESE 10.4 mph - 0.00 in Rain Light Rain
10:27 PM 46.4 °F 41.1 °F 39.2 °F 76% 30.35 in 5.0 mi ESE 11.5 mph - 0.00 in Rain Light Rain
10:51 PM 46.0 °F 41.4 °F 41.0 °F 83% 30.35 in 10.0 mi East 9.2 mph - 0.00 in   Overcast
11:51 PM 46.0 °F 41.4 °F 41.0 °F 83% 30.32 in 7.0 mi East 9.2 mph - 0.00 in Rain Light Rain